Temp
-6 -6 -6 -5 -8 -9 -8 -8 -7 -7 -6 -6 -6 -6 -7 -6 -6 -7 -5 -6 -6 -6 -7 -7 -6 -6 -5 -6 -5 -6 -6 -5 -6 -6 -6 -6 -6 -6 -6 -7 -7 -7 -6 -6
-6 -6 -6 -5 -8 -7 -6 -6 -6 -7 -7 -6 -6 -6 -6 -7 -7 -7 -7 -6 -6 -6 -6 -6 -6 -6 -6 -6 -6 -6 -6 -6 -6 -6 -6 -6 -6 -6 -6 -6 -6 -6 -6 -6
-6 -5 -8 -6 -6 -6 -6 -7 -6 -6 -6 -6 -6 -6 -7 -6 -7 -7 -7 -6 -6 -6 -6 -6 -6 -6 -7 -6 -6 -6 -6 -6 -6 -6 -5 -6 -6 -6 -6 -7 -6 -6 -6 -7
-6 -6 -6 -6 -6 -6 -6 -7 -7 -6 -6 -6 -7 -7 -7 -7 -7 -6 -6 -6 -6 -6 -6 -6 -6 -6 -6 -6 -6 -6 -5 -5 -6 -6 -6 -6 -6 -6 -6 -6 -7 -7 -7 -7
-6 -7 -6 -6 -6 -5 -6 -6 -6 -7 -7 -6 -7 -7 -7 -7 -6 -6 -7 -7 -7 -6 -7 -7 -6 -6 -6 -6 -6 -5 -5 -5 -6 -6 -5 -6 -6 -6 -6 -6 -6 -7 -7 -7
-7 -7 -6 -6 -5 -6 -6 -6 -7 -7 -6 -6 -7 -7 -6 -7 -6 -7 -6 -7 -7 -6 -7 -7 -7 -6 -6 -5 -6 -5 -5 -4 -5 -6 -6 -6 -6 -6 -6 -7 -6 -6 -7 -7
-7 -7 -7 -6 -6 -6 -6 -6 -7 -8 -7 -7 -6 -7 -7 -7 -7 -7 -7 -7 -7 -7 -7 -7 -7 -7 -7 -6 -5 -5 -5 -5 -5 -5 -5 -6 -6 -6 -6 -7 -7 -7 -7 -7
-8 -8 -7 -6 -7 -6 -6 -7 -7 -8 -8 -6 -8 -8 -8 -8 -8 -8 -7 -8 -7 -8 -8 -6 -5 -8 -8 -8 -7 -6 -6 -6 -5 -5 -5 -6 -6 -6 -6 -6 -7 -7 -7 -7
-8 -8 -8 -8 -7 -7 -6 -7 -8 -8 -7 -7 -7 -8 -7 -8 -8 -7 -6 -7 -8 -8 -8 -7 -6 -7 -7 -8 -8 -8 -7 -7 -7 -6 -6 -6 -6 -6 -6 -6 -7 -7 -7 -7
-8 -8 -8 -8 -7 -7 -7 -7 -7 -7 -7 -7 -8 -8 -8 -8 -8 -8 -6 -7 -6 -8 -8 -8 -7 -6 -7 -8 -8 -9 -9 -8 -8 -7 -7 -6 -6 -6 -6 -7 -7 -7 -7 -7
-7 -7 -7 -8 -8 -8 -8 -7 -7 -7 -7 -8 -8 -8 -8 -7 -8 -8 -7 -7 -7 -9 -9 -9 -9 -8 -7 -7 -6 -7 -8 -9 -9 -8 -8 -7 -6 -7 -7 -7 -7 -7 -7 -7
-7 -7 -7 -7 -6 -8 -8 -9 -9 -8 -7 -8 -8 -7 -7 -8 -9 -8 -8 -7 -7 -8 -9 -9 -9 -9 -9 -8 -7 -6 -7 -7 -10 -9 -8 -8 -7 -7 -7 -7 -7 -7 -7 -7
-7 -7 -6 -7 -7 -8 -8 -8 -8 -8 -9 -9 -9 -8 -7 -8 -9 -8 -8 -7 -7 -8 -8 -8 -7 -9 -8 -8 -9 -8 -6 -7 -8 -7 -9 -9 -8 -7 -7 -7 -8 -7 -7 -7
-7 -7 -7 -7 -7 -7 -7 -8 -8 -8 -8 -8 -9 -8 -7 -7 -8 -7 -6 -5 -5 -5 -6 -6 -7 -7 -8 -8 -9 -9 -9 -8 -7 -8 -9 -9 -9 -8 -7 -7 -7 -8 -8 -7
-7 -7 -7 -6 -7 -7 -7 -8 -8 -8 -8 -8 -9 -9 -8 -8 -7 -7 -6 -6 -6 -6 -7 -7 -8 -8 -8 -9 -9 -9 -9 -9 -8 -8 -8 -8 -9 -9 -8 -8 -8 -7 -7 -8
-7 -7 -7 -7 -7 -7 -7 -7 -8 -8 -8 -8 -8 -8 -8 -8 -7 -7 -7 -7 -7 -7 -8 -8 -8 -8 -8 -9 -9 -9 -9 -10 -9 -9 -8 -8 -8 -9 -9 -8 -9 -8 -8 -8
-7 -7 -7 -7 -7 -7 -7 -8 -7 -7 -7 -7 -8 -8 -8 -8 -7 -8 -8 -8 -8 -7 -7 -7 -7 -7 -8 -8 -8 -8 -9 -9 -10 -10 -9 -9 -8 -8 -9 -9 -8 -9 -9 -8
-7 -8 -8 -8 -8 -8 -8 -7 -7 -7 -7 -7 -8 -8 -8 -8 -8 -9 -10 -10 -9 -8 -7 -8 -9 -9 -9 -9 -9 -9 -9 -9 -10 -10 -10 -10 -10 -9 -8 -9 -8 -9 -9 -8
-8 -8 -8 -8 -8 -8 -8 -7 -7 -8 -8 -8 -8 -9 -9 -9 -9 -9 -9 -9 -10 -10 -10 -10 -10 -10 -10 -10 -10 -10 -10 -10 -10 -10 -10 -10 -10 -10 -10 -9 -9 -8 -8 -8
-8 -9 -9 -9 -9 -9 -8 -8 -8 -9 -9 -8 -9 -9 -9 -10 -10 -10 -11 -11 -11 -11 -11 -11 -11 -11 -11 -11 -11 -12 -11 -11 -10 -10 -10 -10 -10 -10 -10 -10 -9 -9 -8 -9
-8 -8 -8 -9 -9 -9 -8 -8 -8 -9 -9 -9 -9 -9 -9 -9 -10 -11 -12 -12 -13 -12 -12 -12 -12 -12 -12 -12 -12 -12 -12 -11 -11 -11 -10 -10 -10 -10 -10 -10 -10 -10 -9 -9
-10 -10 -9 -9 -9 -9 -9 -9 -9 -9 -9 -9 -9 -10 -10 -11 -11 -12 -12 -12 -12 -13 -13 -13 -12 -12 -12 -12 -12 -12 -11 -11 -11 -11 -11 -10 -10 -10 -10 -10 -10 -10 -10 -9
-10 -10 -10 -10 -10 -10 -9 -9 -9 -9 -9 -10 -11 -11 -11 -12 -12 -12 -13 -13 -13 -13 -13 -13 -13 -12 -12 -12 -12 -11 -11 -11 -11 -11 -10 -11 -10 -10 -10 -10 -10 -10 -10 -8
-10 -9 -9 -9 -10 -10 -10 -10 -10 -10 -10 -11 -11 -11 -12 -12 -13 -13 -13 -13 -14 -13 -13 -13 -12 -12 -12 -12 -11 -11 -11 -11 -11 -11 -10 -10 -10 -10 -10 -10 -10 -9 -9 -9
-10 -10 -9 -9 -9 -10 -10 -10 -10 -11 -12 -12 -13 -13 -12 -12 -13 -13 -13 -13 -13 -13 -13 -12 -12 -12 -12 -12 -12 -11 -11 -11 -10 -10 -10 -10 -10 -10 -10 -10 -9 -9 -9 -9
-10 -10 -10 -10 -10 -10 -10 -10 -11 -12 -13 -13 -13 -13 -13 -13 -13 -14 -13 -13 -13 -12 -12 -12 -12 -11 -11 -11 -11 -11 -11 -11 -10 -10 -10 -10 -10 -10 -10 -10 -10 -10 -10 -9
Height
5910 5912 5913 5912 5913 5918 5916 5919 5919 5920 5921 5921 5921 5919 5918 5919 5919 5918 5916 5917 5918 5915 5914 5911 5909 5905 5906 5908 5907 5904 5903 5904 5907 5910 5911 5912 5910 5913 5912 5913 5910 5912 5914 5919
5908 5908 5911 5911 5913 5913 5915 5917 5919 5922 5920 5921 5921 5920 5920 5918 5918 5918 5917 5918 5918 5918 5916 5913 5910 5909 5904 5903 5904 5905 5906 5906 5907 5908 5909 5910 5910 5912 5911 5913 5912 5912 5914 5917
5906 5907 5908 5910 5913 5914 5916 5917 5919 5921 5920 5920 5921 5920 5919 5920 5919 5918 5918 5916 5917 5916 5916 5914 5912 5909 5907 5904 5905 5906 5906 5906 5906 5907 5907 5909 5909 5910 5910 5911 5911 5912 5913 5916
5905 5905 5907 5909 5911 5914 5915 5915 5917 5918 5919 5921 5920 5918 5917 5919 5919 5920 5916 5915 5912 5914 5914 5914 5913 5911 5909 5907 5905 5905 5904 5905 5904 5905 5906 5907 5908 5909 5909 5909 5911 5911 5913 5915
5904 5905 5907 5909 5911 5913 5915 5915 5916 5919 5920 5920 5918 5917 5918 5919 5916 5916 5916 5915 5911 5910 5912 5913 5912 5910 5909 5908 5906 5904 5903 5902 5902 5903 5904 5905 5906 5907 5908 5907 5907 5909 5910 5913
5904 5906 5908 5909 5910 5912 5914 5916 5918 5918 5915 5916 5915 5917 5918 5918 5918 5917 5916 5912 5910 5908 5911 5912 5912 5910 5908 5907 5905 5903 5901 5900 5901 5901 5902 5903 5904 5905 5906 5906 5906 5907 5908 5910
5903 5906 5907 5908 5910 5911 5912 5915 5915 5917 5918 5915 5918 5917 5917 5916 5917 5915 5912 5910 5910 5908 5909 5909 5909 5910 5907 5905 5903 5902 5900 5899 5899 5899 5899 5901 5902 5903 5904 5904 5904 5904 5906 5907
5903 5903 5904 5908 5910 5912 5911 5914 5915 5916 5916 5917 5915 5912 5916 5914 5914 5912 5909 5909 5910 5909 5903 5906 5906 5901 5907 5907 5905 5902 5900 5899 5898 5898 5898 5899 5899 5900 5900 5902 5903 5903 5903 5904
5901 5903 5905 5907 5908 5909 5909 5911 5913 5912 5916 5916 5914 5913 5913 5909 5909 5904 5903 5896 5901 5904 5904 5900 5904 5900 5904 5903 5905 5903 5901 5898 5897 5898 5897 5896 5896 5897 5897 5898 5900 5901 5902 5901
5900 5899 5901 5904 5907 5908 5910 5911 5911 5911 5912 5913 5910 5908 5910 5907 5907 5903 5904 5900 5877 5901 5898 5896 5893 5897 5901 5901 5901 5899 5903 5902 5897 5895 5897 5896 5894 5894 5895 5895 5896 5898 5899 5901
5898 5900 5900 5899 5903 5906 5907 5906 5908 5907 5908 5908 5908 5903 5903 5904 5898 5896 5895 5890 5890 5889 5898 5902 5899 5894 5890 5895 5892 5898 5894 5897 5899 5896 5892 5894 5893 5891 5892 5892 5892 5892 5893 5895
5896 5898 5900 5897 5900 5903 5901 5904 5903 5902 5904 5904 5904 5898 5899 5897 5892 5890 5886 5883 5887 5891 5893 5897 5898 5894 5887 5885 5889 5894 5891 5870 5890 5892 5892 5890 5890 5889 5888 5888 5888 5888 5888 5890
5891 5890 5891 5896 5896 5890 5893 5896 5895 5896 5897 5898 5897 5893 5892 5887 5885 5878 5873 5881 5885 5888 5891 5888 5890 5889 5883 5881 5876 5882 5876 5877 5889 5879 5884 5887 5887 5887 5884 5883 5884 5884 5884 5884
5886 5886 5886 5889 5888 5885 5886 5888 5888 5888 5890 5890 5891 5889 5882 5881 5879 5875 5874 5871 5873 5880 5886 5885 5881 5884 5882 5876 5872 5869 5869 5870 5877 5877 5880 5882 5883 5882 5881 5879 5879 5879 5880 5881
5881 5881 5880 5882 5885 5883 5885 5885 5885 5885 5885 5885 5886 5881 5879 5875 5873 5872 5869 5866 5865 5865 5873 5876 5876 5877 5875 5872 5868 5865 5864 5865 5865 5868 5874 5876 5875 5875 5875 5875 5874 5874 5874 5875
5875 5875 5875 5878 5877 5877 5877 5878 5876 5877 5877 5878 5875 5868 5866 5869 5870 5866 5862 5859 5857 5855 5853 5856 5860 5861 5863 5861 5859 5857 5854 5854 5856 5856 5860 5863 5865 5866 5868 5868 5869 5869 5869 5869
5869 5869 5869 5872 5870 5870 5872 5868 5868 5868 5869 5868 5864 5860 5859 5857 5855 5855 5853 5851 5847 5843 5839 5835 5837 5841 5843 5842 5842 5843 5842 5841 5842 5846 5848 5848 5850 5855 5857 5858 5859 5862 5862 5861
5861 5862 5862 5863 5863 5863 5860 5858 5859 5862 5860 5858 5852 5852 5849 5847 5845 5845 5842 5837 5831 5827 5824 5823 5822 5820 5819 5820 5822 5824 5825 5826 5828 5831 5833 5835 5838 5841 5845 5848 5849 5852 5853 5853
5855 5855 5855 5855 5855 5856 5852 5849 5851 5851 5850 5847 5845 5842 5839 5836 5833 5827 5822 5821 5819 5815 5811 5808 5805 5803 5802 5801 5801 5802 5805 5808 5811 5814 5818 5822 5826 5827 5832 5836 5841 5843 5842 5841
5849 5848 5849 5848 5846 5846 5842 5842 5844 5842 5837 5834 5832 5829 5826 5824 5819 5814 5810 5804 5800 5798 5796 5795 5792 5789 5787 5785 5785 5785 5787 5790 5793 5797 5802 5806 5809 5813 5817 5822 5827 5827 5823 5821
5840 5841 5841 5840 5839 5837 5834 5834 5832 5831 5829 5823 5820 5815 5812 5807 5803 5799 5796 5792 5787 5783 5781 5779 5778 5777 5775 5773 5772 5773 5773 5774 5777 5779 5783 5789 5793 5798 5802 5806 5809 5810 5813 5813
5834 5833 5832 5830 5829 5827 5824 5822 5822 5817 5813 5811 5807 5801 5797 5793 5788 5784 5780 5777 5774 5772 5771 5769 5767 5766 5765 5765 5763 5762 5760 5760 5762 5765 5768 5773 5777 5780 5785 5791 5793 5794 5797 5802
5828 5825 5825 5824 5824 5819 5816 5812 5809 5805 5803 5799 5793 5786 5782 5779 5774 5771 5768 5765 5762 5761 5760 5759 5757 5756 5756 5755 5754 5752 5752 5751 5750 5751 5755 5758 5761 5764 5769 5776 5779 5778 5780 5785
5817 5817 5815 5815 5815 5810 5806 5803 5796 5792 5788 5782 5777 5773 5770 5766 5762 5759 5756 5754 5752 5751 5749 5748 5747 5745 5744 5744 5742 5740 5740 5741 5741 5741 5743 5747 5748 5751 5756 5758 5760 5766 5771 5772
5810 5806 5805 5804 5801 5799 5796 5792 5787 5782 5775 5770 5764 5759 5755 5752 5750 5747 5746 5745 5742 5741 5739 5736 5734 5732 5732 5731 5729 5728 5726 5727 5728 5729 5731 5734 5737 5739 5740 5739 5745 5751 5753 5758
5803 5800 5800 5797 5792 5788 5783 5778 5772 5766 5760 5754 5750 5748 5745 5741 5738 5736 5735 5733 5730 5729 5727 5724 5720 5717 5716 5716 5716 5714 5711 5711 5711 5713 5715 5719 5722 5724 5726 5727 5733 5736 5739 5744
Wind_Speed
7 8 12 11 11 13 20 13 11 9 15 10 7 11 18 15 15 16 14 14 11 14 15 12 10 13 7 5 4 3 4 3 2 3 2 6 9 6 3 2 6 11 11 9
7 9 10 10 13 18 9 8 13 8 7 4 6 9 15 16 21 26 14 12 8 14 13 12 13 12 10 8 8 4 3 4 5 5 4 1 6 5 3 3 4 6 10 9
8 9 3 6 7 4 3 4 3 5 4 4 6 5 10 15 19 28 10 12 8 10 13 14 12 10 12 10 6 5 3 5 7 5 4 4 3 3 6 5 4 4 5 8
9 8 7 6 6 5 7 2 2 3 3 8 13 6 15 14 19 23 15 23 23 10 12 15 14 12 11 9 10 6 5 5 3 7 5 6 5 4 4 6 6 6 4 6
8 10 7 6 6 6 6 4 4 6 6 9 10 11 15 16 23 26 13 30 27 25 17 14 13 12 11 10 9 9 7 5 3 4 6 5 7 5 6 7 7 9 8 7
14 8 1 3 6 5 5 8 6 11 6 2 11 6 12 16 20 20 27 27 26 25 20 17 14 12 11 10 9 8 9 6 5 4 4 9 5 7 8 9 6 7 8 9
8 10 1 4 3 5 9 12 6 10 12 11 9 3 12 16 15 23 26 24 21 21 17 15 13 14 13 16 14 11 8 7 6 6 8 6 9 8 10 11 10 8 9 8
5 6 4 5 1 4 11 14 5 12 13 11 3 7 6 14 17 18 23 16 10 11 14 12 13 5 11 14 16 15 12 9 7 7 8 8 8 11 11 13 13 12 12 11
12 10 5 11 11 5 10 10 7 12 5 8 3 14 14 22 10 18 15 19 18 7 7 19 18 15 20 6 16 17 14 10 9 7 7 8 8 10 11 12 15 16 14 13
17 15 10 11 4 6 3 7 9 9 6 5 14 5 12 16 17 25 19 24 21 6 12 26 26 19 23 20 15 11 18 14 8 7 8 10 10 9 12 12 14 15 15 14
26 19 17 13 3 2 6 11 10 11 12 12 13 23 18 25 25 26 29 41 25 6 15 20 29 30 35 25 28 25 16 10 11 9 7 9 12 12 12 13 13 15 15 14
19 22 22 20 6 10 16 10 13 19 15 17 17 26 22 24 25 34 34 23 16 19 21 25 28 32 35 36 30 29 30 2 12 10 12 11 11 15 16 14 15 14 14 13
18 21 21 14 19 24 23 23 22 24 25 16 18 29 29 30 32 39 41 34 33 28 27 47 26 32 36 36 42 35 35 21 25 10 14 16 17 16 16 18 16 18 17 16
18 17 18 16 24 27 28 27 28 29 27 24 19 25 34 36 35 38 42 43 44 40 32 32 24 26 33 39 38 36 32 29 26 18 21 21 20 20 17 18 18 20 20 19
16 18 22 20 18 24 27 29 31 35 33 32 29 32 38 42 44 45 47 51 52 54 46 44 43 48 46 46 45 43 41 36 34 32 27 26 24 24 22 19 21 21 22 23
19 19 20 16 19 22 24 25 30 34 36 38 40 42 43 41 41 46 51 53 54 55 55 51 47 45 45 48 52 54 54 47 41 42 41 36 30 28 27 24 22 25 24 25
20 21 22 18 21 23 21 24 26 28 27 29 34 37 37 40 43 45 47 48 50 54 57 59 58 55 52 51 54 55 56 55 50 46 47 47 42 35 32 32 33 28 27 29
24 23 23 22 24 23 26 29 29 26 28 31 37 38 40 44 45 44 44 48 54 58 60 61 60 58 55 53 53 54 56 57 56 52 51 52 50 47 40 37 36 34 33 33
26 26 26 26 25 24 26 32 31 32 33 36 38 40 42 44 45 48 52 52 51 53 55 55 52 51 50 51 50 51 52 56 58 57 55 55 54 54 50 43 44 41 43 43
24 24 25 26 27 26 32 34 33 31 37 41 42 44 45 46 48 48 47 47 48 46 44 42 40 40 41 41 42 47 46 51 56 59 59 60 60 60 59 56 51 48 53 57
28 26 27 25 27 31 34 35 37 38 42 43 45 47 48 49 49 48 44 42 42 41 40 38 30 28 30 33 36 41 43 47 50 56 59 60 62 62 62 63 62 62 62 60
30 31 30 30 31 35 38 39 40 44 46 46 48 49 50 47 47 45 44 42 38 36 35 34 33 31 30 29 30 32 33 40 47 48 55 58 62 63 64 64 64 66 67 64
30 32 29 30 30 35 39 41 44 46 47 45 46 49 49 44 44 42 42 40 35 33 33 33 34 35 33 32 31 32 32 33 33 38 46 50 54 59 63 62 64 67 67 65
30 29 31 32 31 36 40 42 47 49 49 49 50 48 42 41 40 39 38 35 34 34 34 35 36 38 37 38 36 36 36 35 34 37 37 37 43 48 50 52 59 63 65 68
29 33 34 36 38 39 42 44 44 44 46 44 45 45 42 40 38 36 32 31 32 34 36 39 41 41 39 39 41 43 44 43 40 43 41 38 42 41 41 46 48 50 56 57
29 32 33 35 39 42 44 46 45 44 45 44 41 38 33 32 30 30 31 33 35 37 39 42 43 44 43 43 42 41 43 46 47 47 47 46 44 43 45 45 41 43 47 47
Wind_Direction
154 154 185 169 68 299 275 263 257 266 302 26 342 8 41 29 34 14 21 45 54 43 40 32 20 358 11 11 349 9 6 334 280 239 208 298 203 203 247 322 229 212 217 207
176 184 168 195 169 232 255 237 247 252 320 33 5 6 34 15 357 358 357 4 34 48 32 27 31 42 359 17 350 341 258 264 265 247 264 140 183 220 249 275 250 207 220 219
218 203 230 194 237 221 189 207 279 312 10 355 342 5 21 7 341 339 309 323 357 22 24 20 15 28 20 5 342 312 305 258 265 258 251 214 201 247 259 241 270 228 195 220
208 212 202 218 201 199 214 205 349 33 81 115 61 8 336 333 315 334 358 356 336 353 7 2 1 5 12 354 359 340 279 265 306 260 257 242 223 210 195 228 238 258 215 201
200 206 245 207 205 218 223 98 134 56 108 158 83 343 285 296 305 336 336 331 325 325 340 340 344 348 2 359 345 345 341 254 275 303 257 244 232 208 213 225 222 229 230 213
66 43 122 189 207 177 159 125 121 20 254 190 115 21 300 283 307 315 318 322 323 312 318 321 329 336 339 340 346 334 335 345 265 279 278 269 260 230 219 231 247 237 230 236
53 355 243 231 193 189 151 167 99 4 340 54 62 1 299 298 301 305 312 309 313 307 304 307 320 331 339 338 336 334 335 330 318 284 276 263 254 249 234 226 238 239 239 241
275 291 298 98 176 246 176 193 63 324 323 12 298 278 230 261 276 291 293 298 325 312 304 327 303 1 344 333 326 327 335 344 336 318 293 282 256 247 241 240 239 242 247 250
204 176 233 305 306 234 200 157 236 277 167 340 275 254 279 310 257 262 298 213 220 279 270 278 317 340 325 332 325 320 319 335 346 330 295 280 280 260 246 240 241 245 243 248
194 160 140 278 323 256 242 227 256 233 202 203 312 313 271 304 277 251 278 274 174 195 313 325 337 276 321 309 282 307 313 312 333 325 305 286 271 269 260 251 245 248 249 247
220 225 196 185 229 255 329 278 279 214 210 258 256 291 290 278 268 261 271 277 268 323 299 311 313 310 310 307 291 302 259 298 312 316 308 289 277 270 257 255 254 251 251 245
235 235 235 234 252 226 234 231 279 279 224 232 254 261 267 273 274 258 286 273 272 270 272 286 289 293 294 296 286 292 262 246 271 296 297 297 284 266 259 255 253 247 246 243
228 238 239 233 194 206 221 224 230 235 251 247 246 264 268 282 282 271 280 277 273 274 271 308 277 284 285 286 292 291 294 302 281 284 284 286 284 277 268 258 257 257 245 241
252 250 250 230 222 233 234 231 234 233 238 238 231 249 254 256 256 268 280 289 289 285 287 289 299 286 278 277 280 287 290 292 286 280 276 270 272 275 269 269 262 254 254 247
257 256 254 256 248 253 255 243 246 251 259 260 255 254 257 262 270 277 283 286 290 293 294 284 280 283 282 278 276 272 276 279 277 281 269 264 267 262 263 265 269 265 257 250
268 261 261 258 254 252 254 254 251 254 256 261 264 268 270 268 269 271 273 281 288 290 290 284 276 270 267 267 268 272 274 274 268 271 272 269 260 259 254 254 265 268 262 260
270 263 266 261 265 269 267 257 258 263 271 271 270 274 281 283 283 285 289 290 285 279 279 280 281 279 272 264 262 261 262 264 264 260 263 267 266 257 253 252 252 255 259 255
272 267 267 269 273 271 271 269 269 275 279 282 283 290 286 286 289 288 284 280 281 283 284 284 284 282 278 274 266 259 256 257 257 257 254 257 261 261 253 251 252 251 252 250
268 270 272 275 272 269 269 274 283 292 293 289 287 286 287 290 292 290 287 285 285 282 281 281 281 280 278 273 269 263 254 251 252 251 249 248 250 254 255 252 252 254 251 247
258 263 273 278 276 277 276 282 289 291 286 291 292 292 291 292 290 289 291 288 284 284 284 282 279 278 273 270 265 262 255 248 247 249 249 249 247 247 250 251 251 253 251 254
282 278 282 279 274 276 280 287 294 294 293 295 297 296 296 295 294 293 290 285 286 286 286 286 282 279 276 272 268 262 258 253 247 247 246 247 249 249 250 251 253 255 256 260
280 284 284 285 289 292 297 297 298 296 298 299 297 295 293 294 293 291 290 287 283 279 277 280 282 282 280 276 271 269 265 258 254 251 251 248 247 248 250 251 255 255 257 261
278 279 283 284 289 289 293 295 297 295 297 298 293 291 293 293 288 288 286 283 279 278 277 276 278 280 280 276 274 267 264 258 257 255 252 253 253 253 253 253 252 255 260 262
282 281 283 284 289 291 295 299 298 299 297 295 294 293 291 287 286 282 279 278 277 278 279 279 280 280 278 275 274 275 272 264 263 260 257 253 256 257 258 258 255 255 257 260
278 285 291 297 299 301 297 295 295 293 291 291 289 291 293 291 288 285 281 278 275 272 276 278 278 279 277 275 276 276 275 272 266 262 261 262 256 257 256 254 255 256 256 258
282 286 292 298 298 298 299 300 302 302 300 298 296 292 289 290 292 293 290 287 285 280 279 277 277 280 276 276 271 272 274 271 267 264 263 260 258 256 252 255 257 257 255 253